SCP
-0 -0 -0 -0 -0 -0 -0 -0 -0 -0 -0 -0 -0 -0 -0 -0 -0 -0 -0 -0 -0 -0 -0 -0 -0 -0 -0 0 0 0 0 0 0 0 0 0 0 0 -0 0 0 -0 -0
-0 -0 -0 -0 -0 -0 -0 -0 -0 -0 -0 -0 -0 -0 -0 -0 -0 -0 -0 -0 -0 -0 -0 -0 -0 -0 0 0 0 0 0 0 0 0 0 0 -0 -0 -0 0 0 -0 0
-0 -0 -0 -0 -0 -0 -0 -0 -0 -0 -0 -0 -0 -0 -0 -0 -0 -0 -0 -0 -0 -0 -0 0 -0 -0 -0 0 0 0 0 0 0 0 0 0 0 0 0 0 0 0 0
-0 -0 -0 -0 -0 -0 -0 -0 -0 -0 -0 -0 -0 0 -0 -0 -0 -0 -0 -0 -0 -0 -0 -0 -0 -0 0 0 0 0 0 0 0 0 0 0 0 0 0 0 0 0 0
0 -0 -0 -0 -0 -0 -0 -0 -0 -0 -0 -0 -0 0 0 0 0 0 0 0 0 0 0 0 0 0 0 0 0 0 0 0 0 0 0 0 0 0 0 0 0 0 0
0 0 0 0 0 0 0 0 -0 -0 -0 -0 0 0 0 0 0 0 0 0 0 0 0 0 0 0 0 0 0 0 0 0 0 0 0 0 0 0 0 0 0 0 0
0 0 0 0 0 0 0 0 0 0 -0 0 0 0 0 0 0 0 0 0 0 0 0 0 0 0 0 0 0 0 0 0 0 0 0 0 0 0 0 0 0 0 0
0 0 0 0 0 0 0 0 0 0 0 0 0 0 0 0 0 0 0 0 0 0 0 0 0 0 0 0 0 0 0 0 0 0 0 0 0 0 0 0 0 0 0
0 0 0 0 0 0 0 0 0 0 0 0 0 0 0 0 0 0 0 0 0 0 0 0 0 0 0 0 0 0 0 0 0 0 0 0 0 0 0 0 0 0 0
0 0 0 0 0 0 0 0 0 0 0 0 0 0 0 0 0 0 0 0 0 0 0 0 0 0 0 0 0 0 0 0 0 0 0 0 0 0 0 0 0 0 0
0 0 0 0 0 0 0 0 0 0 0 0 0 0 0 0 0 0 0 0 0 0 0 0 0 0 0 0 0 0 0 0 0 0 0 0 0 0 0 0 0 0 0
0 0 0 0 0 0 0 0 0 0 0 0 0 0 0 0 0 0 0 0 0 0 0 0 0 0 0 0 0 0 0 0 0 0 0 0 0 0 0 0 0 0 0
0 0 0 0 0 0 0 0 0 0 0 0 0 0 0 0 0 0 0 0 0 0 0 0 0 0 0 0 0 0 0 0 0 0 0 0 0 0 0 0 0 0 0
0 0 0 0 0 0 0 0 0 0 0 0 0 0 0 0 0 0 0 0 0 0 0 0 0 0 0 0 0 0 0 0 0 0 0 0 0 0 0 0 0 0 0
0 0 0 0 0 0 0 0 0 0 0 0 0 0 0 0 0 0 0 0 0 0 0 0 0 0 0 0 0 0 0 0 0 0 0 0 0 0 0 0 0 0 0
0 0 0 0 0 0 0 0 0 0 0 0 0 0 0 0 0 0 0 0 0 0 0 0 0 0 0 0 0 0 0 0 0 0 0 0 0 0 0 0 0 0 0
0 0 0 0 0 0 0 0 0 0 0 0 0 0 0 0 0 0 0 0 0 0 0 0 0 -0 -0 -0 -0 -0 -0 0 0 0 0 0 0 0 0 0 0 0 0
0 0 0 0 0 0 0 0 0 0 0 0 0 0 0 0 0 0 0 0 0 0 0 0 0 0 0 -0 -0 -0 0 0 0 0 0 0 0 0 0 0 0 0 0
0 0 0 0 0 0 0 0 0 0 0 0 0 0 0 0 0 0 0 0 0 0 0 0 0 0 0 0 0 0 0 0 0 0 0 0 0 0 0 0 0 0 0
0 0 0 0 0 0 0 0 0 0 0 0 0 0 0 0 0 0 0 0 0 0 0 0 0 0 0 0 0 0 0 0 0 0 0 0 0 0 0 0 0 0 0
0 0 0 0 0 0 0 0 0 0 0 0 0 0 0 0 0 0 0 0 0 0 0 0 0 0 0 0 0 0 0 -0 -0 -0 -0 0 0 0 0 -0 -0 -0 -0
0 0 0 0 0 0 0 0 0 0 0 0 0 0 0 0 0 0 0 0 0 0 0 0 0 0 0 0 0 0 0 0 0 0 -0 0 0 0 0 0 0 0 0
0 0 0 0 0 0 0 0 0 0 0 0 0 0 0 0 0 0 0 0 0 0 0 0 0 0 0 0 0 0 0 0 0 -0 0 -0 0 0 0 0 0 0 0
0 0 0 0 0 0 0 0 0 0 0 0 0 0 0 0 0 0 0 0 0 0 0 0 0 0 0 0 0 0 0 0 0 0 -0 0 -0 -0 -0 -0 -0 -0 0
0 0 0 0 0 0 0 0 0 0 0 0 0 0 0 0 0 0 0 0 0 0 0 0 0 0 0 0 0 0 0 0 0 0 0 0 0 -0 -0 0 0 0 0
0 0 0 0 0 0 0 0 0 0 0 0 0 0 0 0 0 0 0 0 0 0 0 0 0 0 0 0 0 0 0 0 0 0 0 0 0 0 0 0 0 0 0
Wind_Speed_500mb
5 4 5 7 9 4 8 10 13 12 12 12 12 11 10 8 10 10 12 14 15 16 15 13 15 18 19 19 17 14 17 19 20 19 20 22 21 22 18 21 21 19 17
11 6 4 3 6 4 8 7 10 13 16 16 17 17 17 17 18 19 21 21 22 21 21 21 21 20 22 23 23 22 20 20 22 24 23 24 23 22 25 24 22 21 22
13 7 6 6 6 7 7 10 13 17 17 16 16 17 17 18 20 21 23 23 24 25 26 27 27 27 28 29 29 28 26 24 24 25 25 24 25 24 29 28 25 24 22
18 13 8 5 8 10 10 13 15 15 18 19 20 22 23 25 25 25 27 28 27 29 30 30 31 33 34 34 35 36 34 32 32 28 24 19 17 19 34 31 29 25 26
17 14 5 4 4 5 7 11 13 16 20 22 23 27 30 31 29 31 32 33 32 33 34 36 38 38 38 37 37 38 39 38 36 34 25 25 24 16 34 31 30 31 27
16 9 8 7 3 3 5 7 8 11 15 18 18 22 21 23 24 25 28 31 34 37 40 41 42 42 41 41 43 43 43 42 42 39 31 22 32 28 34 33 33 32 31
20 18 14 9 6 7 8 9 10 12 13 15 18 21 23 24 25 26 28 31 32 33 35 42 47 48 46 43 44 45 44 45 45 43 42 35 32 36 36 34 35 37 35
25 22 17 14 13 12 11 11 13 14 14 14 14 15 14 16 18 20 22 25 27 29 33 38 41 44 47 48 50 48 46 48 46 44 40 41 39 46 38 37 37 38 41
31 27 23 22 20 16 13 14 15 13 12 9 9 10 13 17 21 24 28 31 32 33 32 33 34 38 42 46 48 50 51 49 48 46 42 40 36 49 47 42 41 42 42
37 34 32 28 23 18 17 17 14 14 13 11 11 12 14 16 19 22 26 28 32 36 38 39 38 36 36 38 45 50 49 50 44 47 39 28 44 51 53 49 47 47 48
44 41 36 30 26 24 23 20 19 18 14 11 9 10 12 15 19 24 28 30 32 33 33 35 38 39 38 37 36 36 41 46 52 55 56 51 56 62 59 55 54 52 53
50 47 42 37 33 31 28 25 23 20 16 13 12 11 12 13 16 21 25 29 32 33 34 35 33 33 34 35 36 37 36 39 44 49 52 57 66 68 65 61 62 60 58
49 51 49 45 41 38 34 30 26 23 20 18 16 13 12 13 17 22 26 31 34 35 34 34 34 35 35 37 38 36 36 38 40 44 48 55 63 67 71 71 70 67 66
50 54 53 51 47 43 38 34 31 28 24 21 16 14 15 16 18 23 27 30 33 35 36 36 36 36 37 38 41 42 43 44 44 45 49 52 55 59 66 69 72 73 74
54 56 57 56 52 47 42 39 36 31 27 22 19 18 17 17 19 22 26 32 37 39 40 40 40 39 39 39 40 43 46 48 50 52 55 54 54 56 58 62 68 73 74
61 59 58 58 53 49 45 40 37 32 27 24 22 20 18 18 20 23 28 35 41 45 45 46 47 48 48 50 50 50 53 52 53 56 59 61 58 58 58 58 61 65 72
65 61 63 60 56 52 48 44 41 35 31 29 27 23 20 20 22 25 30 36 41 45 48 49 51 54 56 57 60 60 60 61 62 61 60 62 63 61 60 62 58 59 63
63 65 63 62 61 57 52 47 43 39 37 35 29 25 23 22 24 27 31 35 41 46 48 50 52 55 59 63 68 68 69 69 66 64 65 60 59 61 62 61 65 67 63
65 63 68 67 65 59 55 51 47 45 42 37 30 25 25 26 27 29 33 37 41 44 47 48 51 56 61 65 69 72 76 74 73 70 57 54 53 53 52 52 55 62 68
64 65 68 69 66 63 60 55 53 51 46 39 33 30 31 30 30 31 35 39 43 46 48 51 53 55 60 63 70 75 77 81 69 49 53 45 42 56 70 67 62 62 65
65 69 69 71 70 68 66 62 58 54 48 42 39 37 36 36 34 33 36 41 45 46 46 49 52 54 56 61 71 73 83 55 53 53 40 35 50 68 59 62 82 71 71
72 77 75 72 71 72 68 64 59 53 51 47 47 45 43 39 36 35 37 42 46 46 46 47 50 55 55 49 51 63 39 69 11 17 46 66 42 69 65 55 62 76 90
77 78 79 76 75 75 71 67 64 57 53 51 52 50 46 41 37 38 40 43 46 45 45 47 49 50 50 49 43 32 24 24 78 48 39 58 41 56 97 108 92 90 96
71 73 75 76 79 78 76 76 69 63 60 56 55 55 49 43 40 41 41 43 44 45 44 47 50 54 56 55 47 45 44 52 31 75 69 92 104 86 100 110 118 107 96
62 67 72 74 81 83 84 80 76 71 64 59 60 54 49 44 45 44 42 42 47 47 44 49 54 56 57 54 52 51 54 56 53 56 99 94 105 85 95 104 119 113 115
58 65 71 73 80 85 87 84 81 76 72 70 65 59 51 50 47 45 42 45 48 48 49 54 58 61 63 63 63 63 66 63 60 54 72 123 104 121 118 124 120 127 115
Wind_Direction_500mb
190 198 175 168 170 203 217 223 236 243 246 244 248 249 252 265 269 277 281 285 290 299 306 316 322 326 319 318 318 303 294 295 298 294 287 286 285 291 299 303 308 307 288
187 217 168 196 229 204 210 224 234 237 240 249 257 268 276 276 276 283 289 290 291 290 291 294 295 297 304 306 305 310 303 293 291 292 290 285 287 288 292 298 300 301 283
180 169 180 190 255 276 254 248 236 234 238 253 269 282 285 285 287 288 286 292 295 294 294 293 293 291 291 293 297 297 300 296 286 284 288 294 307 304 289 284 287 294 286
179 194 187 187 226 249 256 248 252 251 257 261 266 272 277 278 282 288 294 291 291 290 289 290 288 286 287 292 293 294 293 293 294 291 291 288 281 281 286 279 279 283 284
189 202 201 258 289 297 297 293 286 280 277 279 280 276 279 289 295 291 290 292 294 294 295 293 292 293 294 291 289 288 288 288 287 292 301 304 277 258 273 276 271 277 276
199 217 232 238 246 299 290 285 287 291 298 300 298 300 304 304 304 304 300 298 295 292 288 286 286 288 290 291 290 289 287 288 291 289 284 278 294 292 261 270 272 268 275
202 213 219 219 224 247 265 290 296 296 294 294 298 304 304 306 305 302 300 297 296 294 292 289 287 285 282 280 281 283 286 285 286 287 289 286 275 275 276 269 270 271 268
211 212 215 233 245 256 282 294 300 305 308 309 310 310 315 318 323 322 321 320 318 315 303 295 293 293 291 286 283 282 283 283 283 283 281 279 277 275 275 274 265 267 268
212 217 224 229 235 248 260 274 284 288 295 310 322 333 339 339 342 343 343 339 334 331 330 323 316 304 296 290 286 282 281 282 286 285 286 281 281 274 275 270 270 264 262
215 217 223 226 231 242 252 262 264 274 287 306 324 334 338 343 344 340 335 332 332 335 335 334 331 328 322 310 296 288 286 283 288 274 270 282 272 271 270 268 268 267 262
218 222 226 229 231 234 237 240 245 248 256 273 293 308 326 333 335 337 338 338 336 334 335 333 332 332 331 325 316 311 299 287 282 280 278 273 268 273 275 270 266 264 264
220 223 226 226 228 231 234 234 236 237 242 246 256 275 290 308 324 333 336 337 335 333 329 328 329 329 329 329 327 324 316 307 298 287 282 277 275 279 278 278 272 265 261
223 224 225 227 227 229 232 233 232 233 232 237 246 257 277 304 325 334 336 336 334 329 324 322 324 325 326 326 325 324 320 315 308 300 291 284 280 278 276 275 273 273 268
214 223 222 225 225 227 228 228 229 231 235 242 251 268 287 301 317 327 330 329 325 323 322 322 322 322 321 320 319 317 317 315 312 305 300 296 290 286 279 274 268 268 269
216 220 222 223 223 225 225 226 228 230 234 241 249 260 275 291 308 318 322 322 324 326 325 325 324 321 320 318 316 315 313 312 310 308 305 301 298 293 287 282 274 269 264
218 221 222 222 223 225 225 226 229 231 236 243 255 266 277 292 305 314 318 323 325 326 327 327 329 328 327 326 323 319 317 314 311 308 306 304 300 295 292 288 282 276 268
223 219 222 222 221 224 225 227 230 233 238 245 252 263 274 285 300 311 318 320 322 323 326 328 328 328 327 325 323 323 319 317 314 311 305 302 299 296 292 289 285 280 274
219 219 220 221 222 224 226 228 231 235 238 243 246 255 265 281 293 301 309 314 319 324 324 325 326 325 326 325 324 322 318 316 315 311 307 301 296 293 291 288 287 284 278
217 215 220 222 224 225 227 228 231 236 239 243 247 254 263 271 283 297 309 316 320 321 320 320 322 322 322 321 319 317 316 313 315 312 304 301 296 293 297 296 291 286 281
214 216 221 223 223 224 226 227 230 233 236 240 244 251 261 272 284 297 306 313 319 319 319 320 320 321 320 318 316 314 314 317 310 310 304 299 300 303 305 301 299 296 289
212 215 219 220 221 223 224 225 230 234 236 238 241 247 255 265 277 293 305 311 310 314 317 319 319 319 320 320 320 317 318 330 317 306 299 282 291 295 288 301 304 300 298
215 223 222 222 222 225 227 228 230 234 235 235 239 246 254 266 279 289 298 301 306 311 317 315 314 316 318 322 320 326 325 322 28 256 285 291 287 300 298 293 297 293 295
218 224 225 225 226 228 227 227 229 230 234 236 240 245 253 263 272 283 292 300 302 307 310 310 313 314 312 313 313 306 319 302 310 321 279 293 294 292 298 301 300 297 294
222 223 228 228 230 230 228 230 233 237 238 240 240 244 251 261 271 281 288 295 299 300 306 308 309 310 308 306 305 303 294 292 309 309 299 292 300 303 300 301 300 297 291
219 224 228 229 231 230 231 231 232 234 235 235 241 244 252 262 270 279 288 293 294 298 305 306 305 306 303 299 297 293 288 281 271 266 291 298 296 298 299 294 296 294 294
222 224 226 228 233 233 232 232 232 233 234 236 239 244 250 258 269 279 287 289 292 299 304 304 303 303 300 297 294 290 287 279 277 272 279 292 291 295 295 294 290 294 293
Wind_Speed_850mb
5 4 5 7 9 4 8 10 13 12 12 12 12 11 10 8 10 10 12 14 15 16 15 13 15 18 19 19 17 14 17 19 20 19 20 22 21 22 18 21 21 19 17
11 6 4 3 6 4 8 7 10 13 16 16 17 17 17 17 18 19 21 21 22 21 21 21 21 20 22 23 23 22 20 20 22 24 23 24 23 22 25 24 22 21 22
13 7 6 6 6 7 7 10 13 17 17 16 16 17 17 18 20 21 23 23 24 25 26 27 27 27 28 29 29 28 26 24 24 25 25 24 25 24 29 28 25 24 22
18 13 8 5 8 10 10 13 15 15 18 19 20 22 23 25 25 25 27 28 27 29 30 30 31 33 34 34 35 36 34 32 32 28 24 19 17 19 34 31 29 25 26
17 14 5 4 4 5 7 11 13 16 20 22 23 27 30 31 29 31 32 33 32 33 34 36 38 38 38 37 37 38 39 38 36 34 25 25 24 16 34 31 30 31 27
16 9 8 7 3 3 5 7 8 11 15 18 18 22 21 23 24 25 28 31 34 37 40 41 42 42 41 41 43 43 43 42 42 39 31 22 32 28 34 33 33 32 31
20 18 14 9 6 7 8 9 10 12 13 15 18 21 23 24 25 26 28 31 32 33 35 42 47 48 46 43 44 45 44 45 45 43 42 35 32 36 36 34 35 37 35
25 22 17 14 13 12 11 11 13 14 14 14 14 15 14 16 18 20 22 25 27 29 33 38 41 44 47 48 50 48 46 48 46 44 40 41 39 46 38 37 37 38 41
31 27 23 22 20 16 13 14 15 13 12 9 9 10 13 17 21 24 28 31 32 33 32 33 34 38 42 46 48 50 51 49 48 46 42 40 36 49 47 42 41 42 42
37 34 32 28 23 18 17 17 14 14 13 11 11 12 14 16 19 22 26 28 32 36 38 39 38 36 36 38 45 50 49 50 44 47 39 28 44 51 53 49 47 47 48
44 41 36 30 26 24 23 20 19 18 14 11 9 10 12 15 19 24 28 30 32 33 33 35 38 39 38 37 36 36 41 46 52 55 56 51 56 62 59 55 54 52 53
50 47 42 37 33 31 28 25 23 20 16 13 12 11 12 13 16 21 25 29 32 33 34 35 33 33 34 35 36 37 36 39 44 49 52 57 66 68 65 61 62 60 58
49 51 49 45 41 38 34 30 26 23 20 18 16 13 12 13 17 22 26 31 34 35 34 34 34 35 35 37 38 36 36 38 40 44 48 55 63 67 71 71 70 67 66
50 54 53 51 47 43 38 34 31 28 24 21 16 14 15 16 18 23 27 30 33 35 36 36 36 36 37 38 41 42 43 44 44 45 49 52 55 59 66 69 72 73 74
54 56 57 56 52 47 42 39 36 31 27 22 19 18 17 17 19 22 26 32 37 39 40 40 40 39 39 39 40 43 46 48 50 52 55 54 54 56 58 62 68 73 74
61 59 58 58 53 49 45 40 37 32 27 24 22 20 18 18 20 23 28 35 41 45 45 46 47 48 48 50 50 50 53 52 53 56 59 61 58 58 58 58 61 65 72
65 61 63 60 56 52 48 44 41 35 31 29 27 23 20 20 22 25 30 36 41 45 48 49 51 54 56 57 60 60 60 61 62 61 60 62 63 61 60 62 58 59 63
63 65 63 62 61 57 52 47 43 39 37 35 29 25 23 22 24 27 31 35 41 46 48 50 52 55 59 63 68 68 69 69 66 64 65 60 59 61 62 61 65 67 63
65 63 68 67 65 59 55 51 47 45 42 37 30 25 25 26 27 29 33 37 41 44 47 48 51 56 61 65 69 72 76 74 73 70 57 54 53 53 52 52 55 62 68
64 65 68 69 66 63 60 55 53 51 46 39 33 30 31 30 30 31 35 39 43 46 48 51 53 55 60 63 70 75 77 81 69 49 53 45 42 56 70 67 62 62 65
65 69 69 71 70 68 66 62 58 54 48 42 39 37 36 36 34 33 36 41 45 46 46 49 52 54 56 61 71 73 83 55 53 53 40 35 50 68 59 62 82 71 71
72 77 75 72 71 72 68 64 59 53 51 47 47 45 43 39 36 35 37 42 46 46 46 47 50 55 55 49 51 63 39 69 11 17 46 66 42 69 65 55 62 76 90
77 78 79 76 75 75 71 67 64 57 53 51 52 50 46 41 37 38 40 43 46 45 45 47 49 50 50 49 43 32 24 24 78 48 39 58 41 56 97 108 92 90 96
71 73 75 76 79 78 76 76 69 63 60 56 55 55 49 43 40 41 41 43 44 45 44 47 50 54 56 55 47 45 44 52 31 75 69 92 104 86 100 110 118 107 96
62 67 72 74 81 83 84 80 76 71 64 59 60 54 49 44 45 44 42 42 47 47 44 49 54 56 57 54 52 51 54 56 53 56 99 94 105 85 95 104 119 113 115
58 65 71 73 80 85 87 84 81 76 72 70 65 59 51 50 47 45 42 45 48 48 49 54 58 61 63 63 63 63 66 63 60 54 72 123 104 121 118 124 120 127 115
Wind_Direction_850mb
190 198 175 168 170 203 217 223 236 243 246 244 248 249 252 265 269 277 281 285 290 299 306 316 322 326 319 318 318 303 294 295 298 294 287 286 285 291 299 303 308 307 288
187 217 168 196 229 204 210 224 234 237 240 249 257 268 276 276 276 283 289 290 291 290 291 294 295 297 304 306 305 310 303 293 291 292 290 285 287 288 292 298 300 301 283
180 169 180 190 255 276 254 248 236 234 238 253 269 282 285 285 287 288 286 292 295 294 294 293 293 291 291 293 297 297 300 296 286 284 288 294 307 304 289 284 287 294 286
179 194 187 187 226 249 256 248 252 251 257 261 266 272 277 278 282 288 294 291 291 290 289 290 288 286 287 292 293 294 293 293 294 291 291 288 281 281 286 279 279 283 284
189 202 201 258 289 297 297 293 286 280 277 279 280 276 279 289 295 291 290 292 294 294 295 293 292 293 294 291 289 288 288 288 287 292 301 304 277 258 273 276 271 277 276
199 217 232 238 246 299 290 285 287 291 298 300 298 300 304 304 304 304 300 298 295 292 288 286 286 288 290 291 290 289 287 288 291 289 284 278 294 292 261 270 272 268 275
202 213 219 219 224 247 265 290 296 296 294 294 298 304 304 306 305 302 300 297 296 294 292 289 287 285 282 280 281 283 286 285 286 287 289 286 275 275 276 269 270 271 268
211 212 215 233 245 256 282 294 300 305 308 309 310 310 315 318 323 322 321 320 318 315 303 295 293 293 291 286 283 282 283 283 283 283 281 279 277 275 275 274 265 267 268
212 217 224 229 235 248 260 274 284 288 295 310 322 333 339 339 342 343 343 339 334 331 330 323 316 304 296 290 286 282 281 282 286 285 286 281 281 274 275 270 270 264 262
215 217 223 226 231 242 252 262 264 274 287 306 324 334 338 343 344 340 335 332 332 335 335 334 331 328 322 310 296 288 286 283 288 274 270 282 272 271 270 268 268 267 262
218 222 226 229 231 234 237 240 245 248 256 273 293 308 326 333 335 337 338 338 336 334 335 333 332 332 331 325 316 311 299 287 282 280 278 273 268 273 275 270 266 264 264
220 223 226 226 228 231 234 234 236 237 242 246 256 275 290 308 324 333 336 337 335 333 329 328 329 329 329 329 327 324 316 307 298 287 282 277 275 279 278 278 272 265 261
223 224 225 227 227 229 232 233 232 233 232 237 246 257 277 304 325 334 336 336 334 329 324 322 324 325 326 326 325 324 320 315 308 300 291 284 280 278 276 275 273 273 268
214 223 222 225 225 227 228 228 229 231 235 242 251 268 287 301 317 327 330 329 325 323 322 322 322 322 321 320 319 317 317 315 312 305 300 296 290 286 279 274 268 268 269
216 220 222 223 223 225 225 226 228 230 234 241 249 260 275 291 308 318 322 322 324 326 325 325 324 321 320 318 316 315 313 312 310 308 305 301 298 293 287 282 274 269 264
218 221 222 222 223 225 225 226 229 231 236 243 255 266 277 292 305 314 318 323 325 326 327 327 329 328 327 326 323 319 317 314 311 308 306 304 300 295 292 288 282 276 268
223 219 222 222 221 224 225 227 230 233 238 245 252 263 274 285 300 311 318 320 322 323 326 328 328 328 327 325 323 323 319 317 314 311 305 302 299 296 292 289 285 280 274
219 219 220 221 222 224 226 228 231 235 238 243 246 255 265 281 293 301 309 314 319 324 324 325 326 325 326 325 324 322 318 316 315 311 307 301 296 293 291 288 287 284 278
217 215 220 222 224 225 227 228 231 236 239 243 247 254 263 271 283 297 309 316 320 321 320 320 322 322 322 321 319 317 316 313 315 312 304 301 296 293 297 296 291 286 281
214 216 221 223 223 224 226 227 230 233 236 240 244 251 261 272 284 297 306 313 319 319 319 320 320 321 320 318 316 314 314 317 310 310 304 299 300 303 305 301 299 296 289
212 215 219 220 221 223 224 225 230 234 236 238 241 247 255 265 277 293 305 311 310 314 317 319 319 319 320 320 320 317 318 330 317 306 299 282 291 295 288 301 304 300 298
215 223 222 222 222 225 227 228 230 234 235 235 239 246 254 266 279 289 298 301 306 311 317 315 314 316 318 322 320 326 325 322 28 256 285 291 287 300 298 293 297 293 295
218 224 225 225 226 228 227 227 229 230 234 236 240 245 253 263 272 283 292 300 302 307 310 310 313 314 312 313 313 306 319 302 310 321 279 293 294 292 298 301 300 297 294
222 223 228 228 230 230 228 230 233 237 238 240 240 244 251 261 271 281 288 295 299 300 306 308 309 310 308 306 305 303 294 292 309 309 299 292 300 303 300 301 300 297 291
219 224 228 229 231 230 231 231 232 234 235 235 241 244 252 262 270 279 288 293 294 298 305 306 305 306 303 299 297 293 288 281 271 266 291 298 296 298 299 294 296 294 294
222 224 226 228 233 233 232 232 232 233 234 236 239 244 250 258 269 279 287 289 292 299 304 304 303 303 300 297 294 290 287 279 277 272 279 292 291 295 295 294 290 294 293